Location: Natural Bridges National Monument
(37.6093°N, 109.9767°W)
Time: 10:16:32
(UTC-06:00)

Cosmos 1727 Rocket - Visible Passes

Search period start: 20 September 2017 00:00
Search period end: 30 September 2017 00:00
Orbit: 960 x 997 km, 82.9° (Epoch: 20 September)

Date Brightness Start Highest point End Pass type
(mag) Time Alt. Az. Time Alt. Az. Time Alt. Az.
20 Sep 5.5 22:18:00 10° N 22:20:43 26° NNE 22:20:43 26° NNE visible
21 Sep 6.6 00:04:37 10° NW 00:05:27 13° NW 00:05:27 13° NW visible
21 Sep 6.0 21:01:20 10° NE 21:02:18 12° NE 21:02:18 12° NE visible
21 Sep 5.6 22:44:14 10° N 22:47:02 29° N 22:47:02 29° N visible
22 Sep 5.6 21:26:00 10° NNE 21:28:37 20° NE 21:28:37 20° NE visible
22 Sep 5.9 23:10:51 10° NNW 23:13:21 24° NNW 23:13:21 24° NNW visible
23 Sep 5.2 21:51:42 10° N 21:54:57 30° NNE 21:54:57 30° NNE visible
23 Sep 6.4 23:38:02 10° NW 23:39:42 16° NW 23:39:42 16° NW visible
24 Sep 5.9 20:35:35 10° NE 20:36:34 11° NE 20:36:34 11° NE visible
24 Sep 5.2 22:17:52 10° N 22:21:19 35° N 22:21:19 35° N visible
25 Sep 5.4 20:59:51 10° NNE 21:02:58 21° NE 21:02:58 21° NE visible
25 Sep 5.6 22:44:25 10° NNW 22:47:42 30° NW 22:47:42 30° NW visible
26 Sep 4.9 21:25:26 10° N 21:29:23 34° NE 21:29:23 34° NE visible
26 Sep 6.1 23:11:29 10° NNW 23:14:08 20° NW 23:14:08 20° NW visible
27 Sep 5.9 20:10:12 10° NE 20:11:05 11° ENE 20:11:05 11° ENE visible
27 Sep 4.7 21:51:32 10° N 21:55:50 46° N 21:55:50 46° N visible
27 Sep 6.7 23:39:44 10° NW 23:40:35 12° WNW 23:40:35 12° WNW visible
28 Sep 5.3 20:33:42 10° NNE 20:37:34 21° ENE 20:37:34 21° ENE visible
28 Sep 5.1 22:18:01 10° NNW 22:22:19 41° NW 22:22:19 41° NW visible
29 Sep 4.6 20:59:10 10° N 21:04:06 37° ENE 21:04:06 37° ENE visible
29 Sep 5.8 22:44:58 10° NNW 22:48:51 26° WNW 22:48:51 26° WNW visible
